When you browse on this site, cookies collect data to enhance your experience and personalize the content and advertising you see.
Visit our Privacy Policy to learn more. By continuing to use the site, you agree to this use of cookies and data.
  • en Belgique
  • Liste des pays
  • À 7 jours
  • Température de l'eau
  • Carte satellitaire
  • Carte météo
  • Widgets météo
  • user-avatar
    Se connecter

    Météo par heure à Byala

    Ce jour, 16 Janvier, Mercredi

    Heure Température Précipitation Vent Pression Humidité
    00:00 -4°C° 0 mm 7 m/s 749 mmHg 71%
    01:00 -6°C° 0 mm 7 m/s 749 mmHg 71%
    02:00 -5°C° 0 mm 6 m/s 749 mmHg 67%
    03:00 -5°C° 0 mm 6 m/s 749 mmHg 67%
    04:00 -5°C° 0 mm 6 m/s 750 mmHg 68%
    05:00 -5°C° 0 mm 5 m/s 750 mmHg 68%
    06:00 -4°C° 0 mm 5 m/s 750 mmHg 70%
    07:00 -4°C° 0 mm 5 m/s 750 mmHg 72%
    08:00 -4°C° 0 mm 6 m/s 749 mmHg 73%
    09:00 -2°C° 0 mm 6 m/s 749 mmHg 66%
    10:00 -1°C° 0 mm 6 m/s 749 mmHg 60%
    11:00 +1°C° 0 mm 6 m/s 749 mmHg 53%
    12:00 +2°C° 0 mm 7 m/s 749 mmHg 53%
    13:00 +2°C° 0 mm 8 m/s 749 mmHg 52%
    14:00 +4°C° 0 mm 8 m/s 749 mmHg 52%
    15:00 +2°C° 0 mm 8 m/s 749 mmHg 57%
    16:00 +2°C° 0 mm 7 m/s 749 mmHg 62%
    17:00 0°C° 0 mm 7 m/s 749 mmHg 67%
    18:00 0°C° 0 mm 7 m/s 750 mmHg 69%
    19:00 -1°C° 0 mm 7 m/s 750 mmHg 72%
    20:00 -1°C° 0 mm 7 m/s 750 mmHg 74%
    21:00 -1°C° 0 mm 6 m/s 751 mmHg 74%
    22:00 -1°C° 0 mm 6 m/s 752 mmHg 75%
    23:00 -1°C° 0 mm 6 m/s 752 mmHg 75%

    Demain, 17 Janvier, Jeudi

    Heure Température Précipitation Vent Pression Humidité
    00:00 -1°C° 0 mm 5 m/s 752 mmHg 76%
    01:00 0°C° 0 mm 3 m/s 753 mmHg 77%
    02:00 +1°C° 0 mm 2 m/s 753 mmHg 77%
    03:00 +1°C° 0 mm 2 m/s 753 mmHg 77%
    04:00 +1°C° 0 mm 2 m/s 753 mmHg 77%
    05:00 +1°C° 0 mm 2 m/s 753 mmHg 77%
    06:00 +1°C° 0 mm 2 m/s 754 mmHg 77%
    07:00 +1°C° 0 mm 2 m/s 754 mmHg 76%
    08:00 +1°C° 0 mm 2 m/s 754 mmHg 75%
    09:00 +3°C° 0 mm 2 m/s 754 mmHg 69%
    10:00 +3°C° 0 mm 3 m/s 754 mmHg 64%
    11:00 +5°C° 0 mm 3 m/s 754 mmHg 58%
    12:00 +7°C° 0 mm 3 m/s 754 mmHg 57%
    13:00 +7°C° 0 mm 4 m/s 754 mmHg 55%
    14:00 +8°C° 0 mm 4 m/s 753 mmHg 54%
    15:00 +7°C° 0 mm 4 m/s 753 mmHg 60%
    16:00 +6°C° 0 mm 4 m/s 753 mmHg 65%
    17:00 +5°C° 0 mm 4 m/s 753 mmHg 71%
    18:00 +4°C° 0 mm 4 m/s 753 mmHg 75%
    19:00 +4°C° 0 mm 4 m/s 753 mmHg 79%
    20:00 +3°C° 0 mm 4 m/s 753 mmHg 83%
    21:00 +3°C° 0 mm 4 m/s 753 mmHg 84%
    22:00 +3°C° 0 mm 4 m/s 753 mmHg 85%
    23:00 +3°C° 0 mm 4 m/s 753 mmHg 87%

    Après-demain, 18 Janvier, Vendredi

    Heure Température Précipitation Vent Pression Humidité
    00:00 +3°C° 0 mm 4 m/s 753 mmHg 86%
    01:00 +1°C° 0 mm 4 m/s 753 mmHg 85%
    02:00 +2°C° 0 mm 3 m/s 753 mmHg 85%
    03:00 +2°C° 0 mm 3 m/s 752 mmHg 84%
    04:00 +2°C° 0 mm 3 m/s 752 mmHg 84%
    05:00 +2°C° 0 mm 3 m/s 752 mmHg 83%
    06:00 +2°C° 0 mm 3 m/s 752 mmHg 83%
    07:00 +1°C° 0 mm 4 m/s 752 mmHg 84%
    08:00 0°C° 0 mm 4 m/s 752 mmHg 84%
    09:00 +3°C° 0 mm 4 m/s 752 mmHg 81%
    10:00 +4°C° 0 mm 4 m/s 752 mmHg 77%
    11:00 +6°C° 0 mm 4 m/s 752 mmHg 73%
    12:00 +7°C° 0 mm 4 m/s 752 mmHg 70%
    13:00 +8°C° 0 mm 4 m/s 752 mmHg 66%
    14:00 +10°C° 0 mm 4 m/s 751 mmHg 62%
    15:00 +8°C° 0 mm 4 m/s 752 mmHg 65%
    16:00 +8°C° 0 mm 3 m/s 752 mmHg 68%
    17:00 +7°C° 0 mm 3 m/s 752 mmHg 72%
    18:00 +5°C° 0 mm 3 m/s 753 mmHg 72%
    19:00 +5°C° 0 mm 3 m/s 753 mmHg 73%
    20:00 +5°C° 0 mm 2 m/s 754 mmHg 73%
    21:00 +4°C° 0 mm 3 m/s 754 mmHg 73%
    22:00 +3°C° 0 mm 3 m/s 755 mmHg 72%
    23:00 +3°C° 0 mm 3 m/s 755 mmHg 72%

    19 Janvier, Samedi

    Heure Température Précipitation Vent Pression Humidité
    00:00 +1°C° 0 mm 4 m/s 755 mmHg 73%
    01:00 +1°C° 0 mm 4 m/s 756 mmHg 75%
    02:00 0°C° 0 mm 5 m/s 756 mmHg 76%
    03:00 0°C° 0 mm 5 m/s 756 mmHg 80%
    04:00 0°C° 0 mm 5 m/s 756 mmHg 84%
    05:00 +1°C° 0 mm 5 m/s 756 mmHg 87%
    06:00 +1°C° 0 mm 4 m/s 757 mmHg 86%
    07:00 +1°C° 0 mm 4 m/s 757 mmHg 85%
    08:00 +1°C° 0 mm 4 m/s 757 mmHg 83%
    09:00 +3°C° 0 mm 4 m/s 757 mmHg 81%
    10:00 +3°C° 0 mm 3 m/s 758 mmHg 79%
    11:00 +3°C° 0 mm 3 m/s 758 mmHg 76%
    12:00 +4°C° 0 mm 3 m/s 757 mmHg 75%
    13:00 +4°C° 0 mm 3 m/s 757 mmHg 74%
    14:00 +5°C° 0 mm 3 m/s 756 mmHg 73%
    15:00 +4°C° 0 mm 3 m/s 756 mmHg 77%
    16:00 +4°C° 0 mm 3 m/s 756 mmHg 80%
    17:00 +3°C° 0 mm 3 m/s 756 mmHg 83%
    18:00 +4°C° 0 mm 2 m/s 756 mmHg 84%
    19:00 +4°C° 0 mm 2 m/s 756 mmHg 85%
    20:00 +4°C° 0 mm 2 m/s 756 mmHg 86%
    21:00 +4°C° 0 mm 2 m/s 756 mmHg 87%
    22:00 +4°C° 0 mm 2 m/s 756 mmHg 89%
    23:00 +4°C° 0 mm 2 m/s 756 mmHg 90%

    20 Janvier, Dimanche

    Heure Température Précipitation Vent Pression Humidité
    00:00 +4°C° 0 mm 2 m/s 755 mmHg 91%
    01:00 +4°C° 0 mm 2 m/s 755 mmHg 92%
    02:00 +4°C° 0 mm 2 m/s 754 mmHg 93%
    03:00 +4°C° 0 mm 2 m/s 754 mmHg 93%
    04:00 +5°C° 0 mm 2 m/s 754 mmHg 94%
    05:00 +4°C° 0 mm 3 m/s 753 mmHg 95%
    06:00 +4°C° 0 mm 3 m/s 753 mmHg 95%
    07:00 +4°C° 0 mm 3 m/s 753 mmHg 95%
    08:00 +4°C° 0 mm 3 m/s 753 mmHg 95%
    09:00 +5°C° 0 mm 3 m/s 753 mmHg 91%
    10:00 +7°C° 0 mm 3 m/s 753 mmHg 88%
    11:00 +8°C° 0 mm 3 m/s 753 mmHg 84%
    12:00 +8°C° 0 mm 4 m/s 752 mmHg 83%
    13:00 +8°C° 0 mm 4 m/s 752 mmHg 81%
    14:00 +10°C° 0 mm 4 m/s 751 mmHg 79%
    15:00 +8°C° 0 mm 4 m/s 751 mmHg 81%
    16:00 +8°C° 0 mm 4 m/s 751 mmHg 83%
    17:00 +8°C° 0 mm 4 m/s 750 mmHg 85%
    18:00 +7°C° 0 mm 4 m/s 750 mmHg 87%
    19:00 +7°C° 0 mm 4 m/s 750 mmHg 89%
    20:00 +6°C° 0 mm 4 m/s 751 mmHg 91%
    21:00 +6°C° 0 mm 4 m/s 751 mmHg 92%
    22:00 +6°C° 0 mm 4 m/s 751 mmHg 92%
    23:00 +5°C° 0 mm 4 m/s 751 mmHg 93%

    21 Janvier, Lundi

    Heure Température Précipitation Vent Pression Humidité
    00:00 +5°C° 0 mm 4 m/s 750 mmHg 94%
    01:00 +5°C° 0 mm 3 m/s 750 mmHg 94%
    02:00 +5°C° 0 mm 3 m/s 750 mmHg 94%
    03:00 +4°C° 0 mm 3 m/s 750 mmHg 94%
    04:00 +4°C° 0 mm 3 m/s 750 mmHg 94%
    05:00 +4°C° 0 mm 3 m/s 750 mmHg 94%
    06:00 +5°C° 0 mm 2 m/s 751 mmHg 93%
    07:00 +5°C° 0 mm 2 m/s 751 mmHg 92%
    08:00 +5°C° 0 mm 2 m/s 751 mmHg 91%
    09:00 +5°C° 0.1 mm 2 m/s 752 mmHg 87%
    10:00 +6°C° 0.1 mm 2 m/s 752 mmHg 82%
    11:00 +8°C° 0.1 mm 1 m/s 752 mmHg 77%
    12:00 +7°C° 0.1 mm 2 m/s 752 mmHg 76%
    13:00 +8°C° 0.1 mm 2 m/s 752 mmHg 75%
    14:00 +8°C° 0.1 mm 2 m/s 752 mmHg 73%
    15:00 +7°C° 0.1 mm 2 m/s 753 mmHg 77%
    16:00 +7°C° 0.1 mm 2 m/s 753 mmHg 80%
    17:00 +6°C° 0.1 mm 2 m/s 753 mmHg 84%
    18:00 +5°C° 0.1 mm 3 m/s 754 mmHg 84%
    19:00 +5°C° 0.1 mm 3 m/s 754 mmHg 85%
    20:00 +4°C° 0.1 mm 4 m/s 755 mmHg 85%
    21:00 +4°C° 0 mm 4 m/s 755 mmHg 85%
    22:00 +2°C° 0 mm 5 m/s 755 mmHg 85%
    23:00 +2°C° 0 mm 6 m/s 756 mmHg 84%
    Voir plus